Regional Weather Roundup
Issued by NWS

Home | Current Version | Previous Version | Text Only | Print | Product List | Glossary On
Versions: 1 2 3 4 5 6 7 8 9 10 11 12 13 14 15 16 17 18 19 20 21 22 23 24 25 26 27 28 29 30 31 32 33 34 35 36 37 38 39 40 41 42 43 44 45 46 47 48 49 50
000
ASPQ40 PGUM 211812
RWRPQ
WEATHER ROUNDUP FOR THE MARIANAS AND MICRONESIA
NATIONAL WEATHER SERVICE TIYAN GU
400 AM CHST SUN JAN 22 2017

GUZ001>004-211900-
MARIANA ISLANDS-

CITY           SKY/WX    TMP DP  RH WIND       PRES   REMARKS
GUAM AIRPORT   CLOUDY    79  75  89 NE16      29.93F
ANDERSEN AFB   CLOUDY    79  73  83 NE18G30   29.94F
ROTA AIRPORT   NOT AVBL
TINIAN AP      NOT AVBL
SAIPAN AP      PTCLDY    79  72  78 NE16G24   29.95F

$$

PMZ161-211900-
REPUBLIC OF PALAU-

CITY           SKY/WX    TMP DP  RH WIND       PRES   REMARKS
KOROR AP       NOT AVBL
KOROR WSO      CLOUDY    79  77  94 E8        29.87S

$$

PMZ171>174-211900-
FEDERATED STATES OF MICRONESIA-

CITY           SKY/WX    TMP DP  RH WIND       PRES   REMARKS
YAP AIRPORT    CLOUDY    79  75  89 NE9       29.85F
CHUUK AP       MOCLDY    82  77  83 NE9       29.81S HX  91
POHNPEI AP     NOT AVBL
POHNPEI WSO    CLOUDY    79  75  89 SE5       29.85R
KOSRAE AP      NOT AVBL

$$

PMZ181-211900-
REPUBLIC OF THE MARSHALL ISLANDS-

CITY           SKY/WX    TMP DP  RH WIND       PRES   REMARKS
KWAJALEIN AP   PTCLDY    82  73  74 E20       29.85S
MAJURO AP      MOCLDY    81  75  83 NE22      29.79
MAJURO WSO     MOCLDY    82  75  78 NE18      29.79S

$$




USA.gov is the U.S. government's official web portal to all federal, state and local government web resources and services.